Regional Weather Roundup
Issued by NWS

Current Version | Previous Version | Text Only | Print | Product List | Glossary On
Versions: 1 2 3 4 5 6 7 8 9 10 11 12 13 14 15 16 17 18 19 20 21 22 23 24 25 26 27 28 29 30 31 32 33 34 35 36 37 38 39 40 41 42 43 44 45 46 47 48 49 50
000
ASUS42 KTBW 261017
RWRFL
FLORIDA REGIONAL WEATHER ROUNDUP
NATIONAL WEATHER SERVICE TAMPA BAY RUSKIN FL
600 AM EDT MON SEP 26 2016

NOTE: "FAIR" INDICATES FEW OR NO CLOUDS BELOW 12,000 FEET WITH NO
SIGNIFICANT WEATHER AND/OR OBSTRUCTIONS TO VISIBILITY.

FLZ001>010-012>015-112-114-115-261100-
PANHANDLE FLORIDA

CITY           SKY/WX    TMP DP  RH WIND       PRES   REMARKS
PENSACOLA      PTCLDY    75  70  84 NE3       29.98S
PENSACOLA NAS  PTCLDY    74  71  91 N3        29.98R
MILTON NAS     CLEAR     70  69  97 NE3       30.00S
CRESTVIEW      PTCLDY    69  67  93 CALM      30.01S
DUKE FIELD     FAIR      69  66  92 NE2       29.99S
VALPARAISO     PTCLDY    73  67  81 NE3       29.99R
MARY ESTHER    MOCLDY    73  68  83 NE6       30.00S
TRI COUNTY     FAIR      68  67  96 CALM      30.01R
PANAMA CITY    NOT AVBL
TYNDALL AFB    CLEAR     73  70  91 E5        29.98S
APALACHICOLA   CLEAR     72  72 100 NE6       29.97F

STATION/POSITION SKY/WX   TEMP    WIND        PRES    WAVE   SWELL
                          AIR SEA DIR/SP/G            HT/PER HT/PER
                          (F)     (DEG/KT/KT) (MB)    (FT/S) (FT/S)
30.1N   87.6W              82 86   30/  6/  8 1014.9R   0
29.2N   88.2W              83 85  280/  2/  2 1014.9F
28.8N   86.0W              83 85              1015.1R   0
PANAMA CITY BEAC           75 86   70/  5/  9 1015.5F
TOWER C                    80     120/ 11/ 12 1015.9R
28.5N   84.5W              84 85   70/  8/ 12 1014.8R   1

$$
FLZ011-016>038-118-127-128-134-139-239-261100-
NORTH FLORIDA

CITY           SKY/WX    TMP DP  RH WIND       PRES   REMARKS
MARIANNA       CLEAR     69  69 100 E6        30.00R
TALLAHASSEE    CLEAR     73  71  93 NE3       30.00R
PERRY          CLEAR     70  69  96 CALM      30.00S
CROSS CITY     CLEAR     70  70 100 CALM      29.99R
LAKE CITY      FAIR      68  68 100 CALM      30.00S
GAINESVILLE    PTCLDY    72  70  93 N5        29.99S
WILLISTON      CLEAR     73  72  94 CALM      29.99S
PALATKA        FAIR      70  70 100 W5        29.98S
MAYPORT NAS    MOCLDY    77  73  87 W5        29.96F
JACKSONVILLE   PTCLDY    72  72 100 W5        29.98R
JAX NAS        MOCLDY    77  73  87 NW6       29.98R
FERNANDINA BEA MOCLDY    79  73  83 N5        29.96S
ST AUGUSTINE   CLEAR     74  72  93 W7        29.98R

STATION/POSITION SKY/WX   TEMP    WIND        PRES    WAVE   SWELL
                          AIR SEA DIR/SP/G            HT/PER HT/PER
                          (F)     (DEG/KT/KT) (MB)    (FT/S) (FT/S)
SHELL POINT                75     360/  4/  6 1014.3
KEATON BEACH               72      40/  5/  7 1015.1R
CEDAR KEY                  77      80/  6/  7 1015.4R
FERNANDINA                 78 85   CALM  /  1 1014.8F
30.7N   81.3W                 82                N/A     4/ 5   2/11
MAYPORT                    79 84  320/  2/  4 1015.1R
31.4N   80.9W              81 82   80/ 14/ 16 1014.7S   4/10   2/10
ST AUGUSTINE               74 83  260/  5/  6 1015.6R

$$
FLZ040-043>046-052-053-057-058-063-144-261100-
INTERIOR CENTRAL FLORIDA

CITY           SKY/WX    TMP DP  RH WIND       PRES   REMARKS
OCALA          MOCLDY    72  68  88 N5        29.99R
THE VILLAGES     N/A     75  75 100 MISG      29.89R
LEESBURG       CLOUDY    76  72  87 N3        29.98R
SANFORD        MOCLDY    74  72  93 CALM      29.98R
ORLANDO EXEC   PTCLDY    76  74  93 CALM      29.98R
ORLANDO INTL   MOCLDY    74  72  93 S5        29.98R
KISSIMMEE      PTCLDY    75  74  96 SE5       29.98S
WINTER HAVEN   PTCLDY    76  73  91 E5        29.98S
LAKELAND       CLEAR     75  73  94 CALM      29.98R
BARTOW         FAIR      72 N/A N/A CALM      29.98R
OKEECHOBEE     CLEAR     72  70  94 CALM      29.98R

$$
FLZ041-047-054-059-064-141-147-261100-
EAST CENTRAL FLORIDA

CITY           SKY/WX    TMP DP  RH WIND       PRES   REMARKS
DAYTONA BEACH  MOCLDY    73  72  96 CALM      29.97S
DELAND         MOCLDY    73  72  94 CALM      29.97S
JFK SPACE CTR  CLEAR     72  71  96 NW2       29.97R
CAPE CANAVERAL CLEAR     74  71  91 S2        29.96R
PATRICK AFB    CLEAR     78  73  86 S5        29.97R
MELBOURNE      CLEAR     74  74 100 CALM      29.97S
VERO BEACH     CLEAR     73  72  96 CALM      29.99R
FT PIERCE      CLEAR     72  71  97 CALM      29.98R
STUART         CLEAR     75  72  88 CALM      29.99R

STATION/POSITION SKY/WX   TEMP    WIND        PRES    WAVE   SWELL
                          AIR SEA DIR/SP/G            HT/PER HT/PER
                          (F)     (DEG/KT/KT) (MB)    (FT/S) (FT/S)
28.5N   80.2W              81 83  260/  8/ 10 1015.0R
TRIDENT PIER               78 85  240/  4/  6 1014.9F
27.5N   80.2W                 85                N/A     2/ 9

$$
FLZ050-056-061-142-242-148-248-149-249-151-251-155-255-
160-260-261100-
WEST CENTRAL FLORIDA

CITY           SKY/WX    TMP DP  RH WIND       PRES   REMARKS
CRYSTAL RIVER  FAIR      72  70  94 CALM      29.98R
INVERNESS      FAIR      70  70 100 CALM      29.99R FOG
BROOKSVILLE    PTCLDY    73  72  96 E5        29.98R
CLEARWATER AIR FAIR      75  73  94 E3        29.96S
ST PETE CLEARW MOCLDY    77  76  96 VRB3      29.96S
TAMPA INTL     PTCLDY    77  75  93 CALM      29.97R
TAMPA EXEC     MOCLDY    75  73  94 CALM      29.97S FOG
PLANT CITY     MOCLDY    77  75  94 SE3       29.99R
MACDILL AFB    PTCLDY    76  76 100 E7        29.96S
PETER O KNIGHT MOCLDY    79  77  94 E6        29.97R
ST PETERSBURG  PTCLDY    79  75  87 SE10      29.95S
SARASOTA       PTCLDY    76  72  87 E5        29.95R
VENICE         FAIR      75  73  94 E7        29.96S

STATION/POSITION SKY/WX   TEMP    WIND        PRES    WAVE   SWELL
                          AIR SEA DIR/SP/G            HT/PER HT/PER
                          (F)     (DEG/KT/KT) (MB)    (FT/S) (FT/S)
27.3N   84.2W                 86                N/A     1
CLEARWATER BEACH           78 86   70/  4/  5 1014.7R
MIDDLE TAMPA BAY                  110/ 11/ 12 1014.9S
VENICE                     75 87   80/  6/  7 1014.0R

$$
FLZ066-069-070-075>078-162-262-165-265-261100-
SOUTHWEST FLORIDA AND KEYS

CITY           SKY/WX    TMP DP  RH WIND       PRES   REMARKS
PUNTA GORDA    PTCLDY    73  72  96 CALM      29.99R
FT MYERS       CLOUDY    75  74  96 CALM      29.96R
SOUTHWEST INTL MOCLDY    75  73  93 NE3       29.97R
NAPLES         CLOUDY    77  75  93 E3        29.95R
MARATHON       CLOUDY    83  75  77 CALM      29.94R
KEY WEST NAS   MOCLDY    83  75  77 SE5       29.95R
KEY WEST INTL  LGT RAIN  81  75  82 SW13G18   29.95R

STATION/POSITION SKY/WX   TEMP    WIND        PRES    WAVE   SWELL
                          AIR SEA DIR/SP/G            HT/PER HT/PER
                          (F)     (DEG/KT/KT) (MB)    (FT/S) (FT/S)
NAPLES                        88              1013.8F
26.0N   85.6W              83 86  330/  2/  4 1014.6R   1
DRY TORTUGAS               84     150/  5/  7 1014.2R
SAND KEY                   83     360/  1/  6 1014.5R
LONG KEY                   83 87  120/  8/  8 1014.1R
MOLASSES REEF              83                 1014.0S

$$
FLZ067-068-071>074-168-172>174-261100-
SOUTHEAST FLORIDA

CITY           SKY/WX    TMP DP  RH WIND       PRES   REMARKS
W PALM BEACH   MOCLDY    75  71  87 N3        29.97R
FT LAUDER-EXEC MOCLDY    75  72  90 CALM      29.95R
FT LAUDERDALE  CLOUDY    80  75  84 CALM      29.95R
POMPANO BEACH  MOCLDY    75  72  90 N3        29.95R
PEMBROKE PINES PTCLDY    77  73  87 CALM      29.97R
OPA LOCKA      MOCLDY    77  74  90 CALM      29.96R
MIAMI          MOCLDY    79  74  84 CALM      29.95R
WEST KENDALL   MOCLDY    75  75 100 CALM      29.95R
HOMESTEAD      CLOUDY    76  75  96 CALM      29.95R

STATION/POSITION SKY/WX   TEMP    WIND        PRES    WAVE   SWELL
                          AIR SEA DIR/SP/G            HT/PER HT/PER
                          (F)     (DEG/KT/KT) (MB)    (FT/S) (FT/S)
PORT EVERGLADES            82     120/  3/  7 1013.7F
VIRGINIA KEY               82 90  130/  3/  3 1014.2F
LAKE WORTH                        120/  6/  7   N/A
FOWEY ROCKS                82 85  130/  8/  8 1014.8R
SETTLEMENT POINT           81     120/  3/  4 1015.3R

$$




USA.gov is the U.S. government's official web portal to all federal, state and local government web resources and services.